User: anonymous   Login
Location: Fours
(44.3167°N, 6.7000°E)
Time: 18:20:41
(UTC+00:00)
Language:

Cosmos 2360 - Orbit

View from above orbital plane
View from above orbital plane
View from above satellite
View from above satellite

Ground track
Ground track

The orbit data is extracted from the following two-line orbital elements,

1 25406U 98045A   22024.56332905 -.00000077  00000-0 -15301-4 0  9996
2 25406  70.8469  69.4534 0009023 217.2282 142.8213 14.12554736211454
Epoch (UTC): 24 January 2022 13:31:11
Eccentricity: 0.0009023
inclination: 70.8469°
perigee height: 844 km
apogee height: 857 km
right ascension of ascending node: 69.4534°
argument of perigee: 217.2282°
revolutions per day: 14.12554736
mean anomaly at epoch: 142.8213°
orbit number at epoch: 21145

The dashed part of the orbit path shows where the satellite is in the earth's shadow,  

DLR